"Period start","avg(HW err(1)/warn(2) (#))","avg(Visibility (m))","avg(Weather code (#))","avg(Precip intensity (mm/h))","min(HW err(1)/warn(2) (#))","max(HW err(1)/warn(2) (#))","std(HW err(1)/warn(2) (#))","med(HW err(1)/warn(2) (#))","min(Visibility (m))","max(Visibility (m))","std(Visibility (m))","med(Visibility (m))","min(Weather code (#))","max(Weather code (#))","std(Weather code (#))","med(Weather code (#))","min(Precip intensity (mm/h))","max(Precip intensity (mm/h))","std(Precip intensity (mm/h))","med(Precip intensity (mm/h))"
2013-11-13 00:00:00,1,,,,1,1,0,1,,,,,,,,,,,,
2013-11-13 00:10:00,1,,,,1,1,0,1,,,,,,,,,,,,
2013-11-13 00:20:00,1,,,,1,1,0,1,,,,,,,,,,,,
2013-11-13 00:30:00,1,,,,1,1,0,1,,,,,,,,,,,,
2013-11-13 00:40:00,1,,,,1,1,0,1,,,,,,,,,,,,
2013-11-13 00:50:00,1,,,,1,1,0,1,,,,,,,,,,,,
2013-11-13 01:00:00,1,,,,1,1,0,1,,,,,,,,,,,,
2013-11-13 01:10:00,1,,,,1,1,0,1,,,,,,,,,,,,
2013-11-13 01:20:00,1,,,,1,1,0,1,,,,,,,,,,,,
2013-11-13 01:30:00,1,,,,1,1,0,1,,,,,,,,,,,,
2013-11-13 01:40:00,1,,,,1,1,0,1,,,,,,,,,,,,
2013-11-13 01:50:00,1,,,,1,1,0,1,,,,,,,,,,,,
2013-11-13 02:00:00,1,,,,1,1,0,1,,,,,,,,,,,,
2013-11-13 02:10:00,1,,,,1,1,0,1,,,,,,,,,,,,
2013-11-13 02:20:00,1,,,,1,1,0,1,,,,,,,,,,,,
2013-11-13 02:30:00,1,,,,1,1,0,1,,,,,,,,,,,,
2013-11-13 02:40:00,1,,,,1,1,0,1,,,,,,,,,,,,
2013-11-13 02:50:00,1,,,,1,1,0,1,,,,,,,,,,,,
2013-11-13 03:00:00,1,,,,1,1,0,1,,,,,,,,,,,,
2013-11-13 03:10:00,1,25000,,0.00,1,2,0,1,0,50000,25000,25000,,,,,0.00,0.00,0.00,0.00
2013-11-13 03:20:00,2,45160,0,0.00,2,2,0,2,38274,50000,4428,44893,0,0,0,0,0.00,0.00,0.00,0.00
2013-11-13 03:30:00,2,40292,30,0.00,2,2,0,2,16262,50000,9005,42110,0,78,37,0,0.00,0.00,0.00,0.00
2013-11-13 03:40:00,2,27281,20,0.00,1,2,0,2,0,41016,12901,29952,0,71,32,0,0.00,0.00,0.00,0.00
2013-11-13 03:50:00,1,0,74,0.00,1,2,0,1,0,0,0,0,71,77,3,74,0.00,0.00,0.00,0.00
2013-11-13 04:00:00,1,4417,75,0.07,1,2,0,1,0,13251,6247,0,71,77,3,77,0.00,0.20,0.09,0.00
2013-11-13 04:10:00,2,37802,74,0.01,2,2,0,2,28521,46821,5848,39445,71,78,3,74,0.00,0.05,0.02,0.00
2013-11-13 04:20:00,2,25849,75,0.00,1,2,0,2,0,38686,13390,31221,71,78,3,77,0.00,0.00,0.00,0.00
2013-11-13 04:30:00,1,,,,1,1,0,1,,,,,,,,,,,,
2013-11-13 04:40:00,1,0,78,0.00,1,2,0,1,0,0,0,0,78,78,0,78,0.00,0.00,0.00,0.00
2013-11-13 04:50:00,1,,,,1,1,0,1,,,,,,,,,,,,
2013-11-13 05:00:00,1,,,,1,1,0,1,,,,,,,,,,,,
2013-11-13 05:10:00,1,,,,1,1,0,1,,,,,,,,,,,,
2013-11-13 05:20:00,1,,,,1,1,0,1,,,,,,,,,,,,
2013-11-13 05:30:00,1,,,,1,1,0,1,,,,,,,,,,,,
2013-11-13 05:40:00,2,26418,73,0.01,1,2,0,2,0,49499,19633,35129,71,77,3,71,0.00,0.05,0.02,0.00
2013-11-13 05:50:00,2,35047,23,0.00,2,2,0,2,10412,46415,11673,39150,0,78,36,0,0.00,0.00,0.00,0.00
2013-11-13 06:00:00,2,40888,53,0.00,2,2,0,2,30360,50000,5633,40018,0,78,35,74,0.00,0.00,0.00,0.00
2013-11-13 06:10:00,2,44383,0,0.00,2,2,0,2,39090,50000,3137,44888,0,0,0,0,0.00,0.00,0.00,0.00
2013-11-13 06:20:00,2,47363,0,0.00,2,2,0,2,35472,50000,4499,49169,0,0,0,0,0.00,0.00,0.00,0.00
2013-11-13 06:30:00,2,46246,0,0.00,2,2,0,2,43458,49337,1889,46400,0,0,0,0,0.00,0.00,0.00,0.00
2013-11-13 06:40:00,2,37975,14,0.01,2,2,0,2,11192,50000,11909,44272,0,71,28,0,0.00,0.05,0.02,0.00
2013-11-13 06:50:00,2,43400,8,0.00,2,2,0,2,35919,47247,4011,45118,0,78,23,0,0.00,0.00,0.00,0.00
2013-11-13 07:00:00,1,26801,24,0.00,1,2,0,1,0,44430,19263,35973,0,71,33,0,0.00,0.00,0.00,0.00
2013-11-13 07:10:00,1,,,,1,1,0,1,,,,,,,,,,,,
2013-11-13 07:20:00,1,,,,1,1,0,1,,,,,,,,,,,,
2013-11-13 07:30:00,1,,,,1,1,0,1,,,,,,,,,,,,
2013-11-13 07:40:00,1,,,,1,1,0,1,,,,,,,,,,,,
2013-11-13 07:50:00,1,20857,77,0.00,1,2,0,1,20857,20857,0,20857,77,77,0,77,0.00,0.00,0.00,0.00
2013-11-13 08:00:00,2,8801,77,0.08,2,2,0,2,3076,14100,3987,8912,77,77,0,77,0.00,0.40,0.12,0.05
2013-11-13 08:10:00,2,8252,71,0.06,2,2,0,2,4517,11974,1937,8594,71,71,0,71,0.00,0.10,0.04,0.05
2013-11-13 08:20:00,2,7295,75,0.07,2,2,0,2,4712,11157,2121,6772,71,77,3,77,0.00,0.10,0.03,0.05
2013-11-13 08:30:00,2,8784,72,0.09,2,2,0,2,4274,11286,1845,9279,71,77,2,71,0.00,0.35,0.10,0.05
2013-11-13 08:40:00,2,16835,73,0.08,2,2,0,2,8383,25186,4929,16132,71,77,3,71,0.00,0.40,0.13,0.00
2013-11-13 08:50:00,2,22268,58,0.00,2,2,0,2,17027,31166,3835,21890,0,77,29,71,0.00,0.00,0.00,0.00
2013-11-13 09:00:00,2,28917,38,0.00,2,2,0,2,24503,41196,5124,26100,0,77,38,38,0.00,0.00,0.00,0.00
2013-11-13 09:10:00,2,32041,0,0.00,2,2,0,2,16379,42695,7196,33450,0,0,0,0,0.00,0.00,0.00,0.00
2013-11-13 09:20:00,2,24179,76,0.00,2,2,0,2,18119,33852,4850,22432,71,78,3,78,0.00,0.00,0.00,0.00
2013-11-13 09:30:00,2,20803,53,0.00,2,2,0,2,15298,27773,3651,20576,0,78,35,74,0.00,0.00,0.00,0.00
2013-11-13 09:40:00,2,19620,78,0.01,2,2,0,2,11727,25015,3997,19790,77,78,0,78,0.00,0.05,0.02,0.00
2013-11-13 09:50:00,2,12457,72,0.14,2,2,0,2,3308,18458,4450,12420,71,78,3,71,0.00,0.50,0.19,0.03
2013-11-13 10:00:00,2,14692,72,0.12,2,2,0,2,8428,21148,4419,14768,71,77,2,71,0.00,0.55,0.19,0.00
2013-11-13 10:10:00,2,15555,75,0.01,2,2,0,2,12682,20116,2528,14766,71,78,3,77,0.00,0.05,0.02,0.00
2013-11-13 10:20:00,2,14666,78,0.01,2,2,0,2,9039,19767,2971,13956,77,78,0,78,0.00,0.05,0.02,0.00
2013-11-13 10:30:00,2,13549,74,0.03,2,2,0,2,9982,16513,1906,13894,71,77,3,74,0.00,0.15,0.05,0.00
2013-11-13 10:40:00,2,13000,76,0.02,2,2,0,2,8763,17539,2462,12752,71,78,3,78,0.00,0.10,0.03,0.00
2013-11-13 10:50:00,2,12821,72,0.04,2,2,0,2,9668,16154,1987,12630,71,78,2,71,0.00,0.10,0.04,0.03
2013-11-13 11:00:00,2,11616,72,0.03,2,2,0,2,9103,15236,1820,11284,71,77,2,71,0.00,0.10,0.03,0.03
2013-11-13 11:10:00,2,17250,78,0.00,2,2,0,2,13609,19999,1932,17255,78,78,0,78,0.00,0.00,0.00,0.00
2013-11-13 11:20:00,2,16556,78,0.00,2,2,0,2,12900,20430,2642,16014,78,78,0,78,0.00,0.00,0.00,0.00
2013-11-13 11:30:00,2,16213,78,0.00,2,2,0,2,14403,18184,1163,16372,78,78,0,78,0.00,0.00,0.00,0.00
2013-11-13 11:40:00,2,15673,78,0.00,2,2,0,2,12514,19435,2202,15293,78,78,0,78,0.00,0.00,0.00,0.00
2013-11-13 11:50:00,2,17598,78,0.00,2,2,0,2,15903,18919,1012,17618,78,78,0,78,0.00,0.00,0.00,0.00
2013-11-13 12:00:00,2,17186,76,0.01,2,2,0,2,13006,20863,2595,18097,71,78,3,78,0.00,0.10,0.03,0.00
2013-11-13 12:10:00,2,17009,52,0.01,2,2,0,2,11160,20319,3411,18390,0,78,34,71,0.00,0.10,0.03,0.00
2013-11-13 12:20:00,2,15829,30,0.01,2,2,0,2,9390,23010,4359,15234,0,78,37,0,0.00,0.05,0.02,0.00
2013-11-13 12:30:00,2,8828,77,0.14,2,2,0,2,2768,14515,4634,9658,77,78,0,77,0.00,0.55,0.18,0.05
2013-11-13 12:40:00,2,6767,75,0.06,2,2,0,2,5097,8972,1279,6656,71,77,3,77,0.00,0.15,0.04,0.05
2013-11-13 12:50:00,2,8049,72,0.20,2,2,0,2,4051,12344,2819,8448,71,77,2,71,0.00,0.50,0.17,0.17
2013-11-13 13:00:00,2,8991,71,0.07,2,2,0,2,6154,12330,1842,8616,71,71,0,71,0.00,0.15,0.05,0.05
2013-11-13 13:10:00,2,12127,73,0.03,2,2,0,2,9395,15156,1662,12444,71,77,3,71,0.00,0.10,0.04,0.00
2013-11-13 13:20:00,2,15322,72,0.06,2,2,0,2,8214,20448,3644,14959,71,77,2,71,0.00,0.45,0.13,0.00
2013-11-13 13:30:00,2,18135,75,0.02,2,2,0,2,12904,20612,2129,18522,71,78,3,78,0.00,0.20,0.06,0.00
2013-11-13 13:40:00,2,19406,76,0.03,2,2,0,2,12463,25248,3859,19660,71,78,3,77,0.00,0.25,0.08,0.00
2013-11-13 13:50:00,2,16852,76,0.08,2,2,0,2,6354,25479,5588,15899,71,78,3,78,0.00,0.70,0.21,0.00
2013-11-13 14:00:00,2,24097,59,0.00,2,2,0,2,17455,32373,3909,23431,0,78,29,71,0.00,0.00,0.00,0.00
2013-11-13 14:10:00,2,23672,0,0.00,2,2,0,2,19134,28359,3089,24360,0,0,0,0,0.00,0.00,0.00,0.00
2013-11-13 14:20:00,2,22703,0,0.00,2,2,0,2,20869,25720,1574,22100,0,0,0,0,0.00,0.00,0.00,0.00
2013-11-13 14:30:00,2,19876,14,0.00,2,2,0,2,14212,24733,3416,19306,0,71,28,0,0.00,0.00,0.00,0.00
2013-11-13 14:40:00,2,19082,78,0.00,2,2,0,2,17011,22447,1966,18640,78,78,0,78,0.00,0.00,0.00,0.00
2013-11-13 14:50:00,2,19166,8,0.00,2,2,0,2,15987,22285,2243,19176,0,78,23,0,0.00,0.00,0.00,0.00
2013-11-13 15:00:00,2,16906,61,0.00,2,2,0,2,12759,22864,2957,16132,0,78,31,78,0.00,0.00,0.00,0.00
2013-11-13 15:10:00,2,21324,39,0.00,2,2,0,2,16946,23947,2152,22295,0,78,39,39,0.00,0.00,0.00,0.00
2013-11-13 15:20:00,2,22160,0,0.00,2,2,0,2,19345,28047,2634,21178,0,0,0,0,0.00,0.00,0.00,0.00
2013-11-13 15:30:00,2,21607,0,0.00,2,2,0,2,18159,24813,1953,22158,0,0,0,0,0.00,0.00,0.00,0.00
2013-11-13 15:40:00,2,22069,14,0.00,2,2,0,2,17289,27508,2932,21138,0,71,28,0,0.00,0.00,0.00,0.00
2013-11-13 15:50:00,2,20918,78,0.00,2,2,0,2,16159,27721,3189,19936,78,78,0,78,0.00,0.00,0.00,0.00
2013-11-13 16:00:00,2,24884,47,0.00,2,2,0,2,19735,28526,3098,25772,0,78,38,78,0.00,0.00,0.00,0.00
2013-11-13 16:10:00,2,25063,0,0.00,2,2,0,2,22622,28571,1736,24922,0,0,0,0,0.00,0.00,0.00,0.00
2013-11-13 16:20:00,2,28104,0,0.00,2,2,0,2,22790,34311,2955,28277,0,0,0,0,0.00,0.00,0.00,0.00
2013-11-13 16:30:00,2,32626,0,0.00,2,2,0,2,25201,40423,4188,32976,0,0,0,0,0.00,0.00,0.00,0.00
2013-11-13 16:40:00,2,30797,0,0.00,2,2,0,2,23598,34009,2639,31464,0,0,0,0,0.00,0.00,0.00,0.00
2013-11-13 16:50:00,2,34863,0,0.00,2,2,0,2,30738,41221,3324,34432,0,0,0,0,0.00,0.00,0.00,0.00
2013-11-13 17:00:00,2,34167,0,0.00,2,2,0,2,27868,43285,5397,33318,0,0,0,0,0.00,0.00,0.00,0.00
2013-11-13 17:10:00,2,30868,0,0.00,2,2,0,2,27617,36181,2749,30147,0,0,0,0,0.00,0.00,0.00,0.00
2013-11-13 17:20:00,2,31930,0,0.00,2,2,0,2,27510,36793,2856,31002,0,0,0,0,0.00,0.00,0.00,0.00
2013-11-13 17:30:00,2,32331,0,0.00,2,2,0,2,29398,37363,2131,32016,0,0,0,0,0.00,0.00,0.00,0.00
2013-11-13 17:40:00,2,34850,0,0.00,2,2,0,2,30190,39726,2858,35074,0,0,0,0,0.00,0.00,0.00,0.00
2013-11-13 17:50:00,2,33423,0,0.00,2,2,0,2,28162,40277,4743,32374,0,0,0,0,0.00,0.00,0.00,0.00
2013-11-13 18:00:00,2,30666,0,0.00,2,2,0,2,26146,34109,2841,31912,0,0,0,0,0.00,0.00,0.00,0.00
2013-11-13 18:10:00,2,34180,0,0.00,2,2,0,2,27617,40504,3452,33964,0,0,0,0,0.00,0.00,0.00,0.00
2013-11-13 18:20:00,2,37538,0,0.00,2,2,0,2,33612,41322,2718,36889,0,0,0,0,0.00,0.00,0.00,0.00
2013-11-13 18:30:00,2,40729,0,0.00,2,2,0,2,36183,43205,1917,41102,0,0,0,0,0.00,0.00,0.00,0.00
2013-11-13 18:40:00,2,38528,0,0.00,2,2,0,2,31895,46662,5089,37091,0,0,0,0,0.00,0.00,0.00,0.00
2013-11-13 18:50:00,2,33576,0,0.00,2,2,0,2,28114,42950,4271,34026,0,0,0,0,0.00,0.00,0.00,0.00
2013-11-13 19:00:00,2,38175,0,0.00,2,2,0,2,33322,43657,3816,36816,0,0,0,0,0.00,0.00,0.00,0.00
2013-11-13 19:10:00,2,39142,0,0.00,2,2,0,2,33702,47229,3714,39706,0,0,0,0,0.00,0.00,0.00,0.00
2013-11-13 19:20:00,2,38489,0,0.00,2,2,0,2,32254,45028,4035,38516,0,0,0,0,0.00,0.00,0.00,0.00
2013-11-13 19:30:00,2,33551,0,0.00,2,2,0,2,26776,39373,3970,34626,0,0,0,0,0.00,0.00,0.00,0.00
2013-11-13 19:40:00,2,36661,0,0.00,2,2,0,2,32328,46156,4424,34812,0,0,0,0,0.00,0.00,0.00,0.00
2013-11-13 19:50:00,2,38024,0,0.00,2,2,0,2,26741,45258,5864,39934,0,0,0,0,0.00,0.00,0.00,0.00
2013-11-13 20:00:00,2,35483,30,0.00,2,2,0,2,29184,44291,4655,36752,0,78,37,0,0.00,0.00,0.00,0.00
2013-11-13 20:10:00,2,37763,0,0.00,2,2,0,2,31209,47519,5825,36266,0,0,0,0,0.00,0.00,0.00,0.00
2013-11-13 20:20:00,2,43060,0,0.00,2,2,0,2,37843,47163,3031,43968,0,0,0,0,0.00,0.00,0.00,0.00
2013-11-13 20:30:00,2,45648,0,0.00,2,2,0,2,40351,50000,2823,45198,0,0,0,0,0.00,0.00,0.00,0.00
2013-11-13 20:40:00,2,42289,0,0.00,2,2,0,2,39067,47014,2047,41522,0,0,0,0,0.00,0.00,0.00,0.00
2013-11-13 20:50:00,2,45558,0,0.00,2,2,0,2,38483,50000,4105,45526,0,0,0,0,0.00,0.00,0.00,0.00
2013-11-13 21:00:00,2,43716,0,0.00,2,2,0,2,40787,45193,1288,43562,0,0,0,0,0.00,0.00,0.00,0.00
2013-11-13 21:10:00,2,38634,0,0.00,2,2,0,2,28594,46761,4561,38898,0,0,0,0,0.00,0.00,0.00,0.00
2013-11-13 21:20:00,2,36854,0,0.00,2,2,0,2,27901,48679,6169,34594,0,0,0,0,0.00,0.00,0.00,0.00
2013-11-13 21:30:00,2,35272,0,0.00,2,2,0,2,27966,42311,4339,35261,0,0,0,0,0.00,0.00,0.00,0.00
2013-11-13 21:40:00,2,41968,0,0.00,2,2,0,2,37354,47631,3053,41719,0,0,0,0,0.00,0.00,0.00,0.00
2013-11-13 21:50:00,2,28572,36,0.02,2,2,0,2,12392,44240,11010,27262,0,71,36,36,0.00,0.20,0.06,0.00
2013-11-13 22:00:00,2,27977,76,0.01,2,2,0,2,15927,40134,7169,30472,71,78,3,78,0.00,0.05,0.02,0.00
2013-11-13 22:10:00,2,36273,78,0.00,2,2,0,2,30907,40139,3285,37143,78,78,0,78,0.00,0.00,0.00,0.00
2013-11-13 22:20:00,2,40064,78,0.00,2,2,0,2,28244,49338,6614,40776,78,78,0,78,0.00,0.00,0.00,0.00
2013-11-13 22:30:00,2,42740,78,0.00,2,2,0,2,37051,50000,4745,41726,78,78,0,78,0.00,0.00,0.00,0.00
2013-11-13 22:40:00,2,29160,78,0.00,2,2,0,2,21611,37429,5130,30216,78,78,0,78,0.00,0.00,0.00,0.00
2013-11-13 22:50:00,2,27696,78,0.00,2,2,0,2,13952,39078,7234,26634,78,78,0,78,0.00,0.00,0.00,0.00
2013-11-13 23:00:00,2,26768,78,0.00,2,2,0,2,19941,33175,3897,26705,78,78,0,78,0.00,0.00,0.00,0.00
2013-11-13 23:10:00,2,13944,78,0.01,2,2,0,2,8747,28298,5656,11698,78,78,0,78,0.00,0.05,0.02,0.00
2013-11-13 23:20:00,2,14465,78,0.01,2,2,0,2,9867,19624,3360,13692,78,78,0,78,0.00,0.05,0.02,0.00
2013-11-13 23:30:00,2,15168,78,0.01,2,2,0,2,8271,17252,2564,15930,78,78,0,78,0.00,0.05,0.02,0.00
2013-11-13 23:40:00,2,7540,78,0.09,2,2,0,2,5666,8433,835,7852,77,78,0,78,0.00,0.20,0.08,0.05
2013-11-13 23:50:00,2,6874,77,0.11,2,2,0,2,3778,9783,1859,6724,77,77,0,77,0.00,0.30,0.08,0.10
